User: anonymous   Login
Location: Clinton NY
(43.0598°N, 75.3602°W)
Time: 00:27:43
(UTC-05:00)
Language:

Iridium 11 - Orbit

View from above orbital plane
View from above orbital plane
View from above satellite
View from above satellite

Ground track
Ground track

The orbit data is extracted from the following two-line orbital elements,

1 25578U 98074B   14354.42405312  .00000050  00000-0  10932-4 0  1539
2 25578 086.3975 275.8713 0002142 095.3981 041.3101 14.34209449847003
Epoch (UTC): 20 December 2014 10:10:38
Eccentricity: 0.0002142
inclination: 86.3975°
perigee height: 776 km
apogee height: 779 km
right ascension of ascending node: 275.8713°
argument of perigee: 95.3981°
revolutions per day: 14.34209449
mean anomaly at epoch: 41.3101°
orbit number at epoch: 84700

The dashed part of the orbit path shows where the satellite is in the earth's shadow,  

DLR